Regional Weather Roundup
Issued by NWS Boston, MA

Current Version | Previous Version | Text Only | Print | Product List | Glossary On
Versions: 1 2 3 4 5 6 7 8 9 10 11 12 13 14 15 16 17 18 19 20 21 22 23 24 25 26 27 28
000
ASUS41 KBOX 260010
RWRBOX

REGIONAL WEATHER ROUNDUP
NATIONAL WEATHER SERVICE BOSTON/NORTON MA
800 PM EDT SUN SEP 25 2022

NOTE:  "FAIR" INDICATES FEW OR NO CLOUDS BELOW 12,000 FEET WITH NO
SIGNIFICANT WEATHER AND/OR OBSTRUCTIONS TO VISIBILITY.

MAZALL-260100-
EASTERN MASSACHUSETTS

CITY           SKY/WX    TMP DP  RH WIND       PRES   REMARKS
BOSTON         CLOUDY    66  61  84 S9        29.63F
6HR MIN TEMP:  64; 6HR MAX TEMP:  69; 6HR PCP: TRACE;

BEVERLY        CLOUDY    63  60  90 SE9       29.61F
LAWRENCE       CLOUDY    63  59  87 VRB5      29.63F
BEDFORD        CLOUDY    65  61  87 S9        29.60F
NORWOOD        CLOUDY    67  62  84 S7        29.63S
MARSHFIELD     CLOUDY    66  61  82 S9        29.63F
PLYMOUTH       CLOUDY    67  62  84 S10       29.65F
TAUNTON          N/A    N/A N/A N/A MISG      29.65S
NEW BEDFORD    CLOUDY    68  65  90 S10       29.65F
$$

MAZALL-260100-
CAPE COD AND THE ISLANDS

CITY           SKY/WX    TMP DP  RH WIND       PRES   REMARKS
FALMOUTH       MOCLDY    66  63  88 S16G22    29.67F
HYANNIS        MOCLDY    68  62  81 S14G23    29.66F
CHATHAM        MOCLDY    66  61  84 S8G21     29.69F
PROVINCETOWN   MOCLDY    65  62  90 S12G18    29.67F
NANTUCKET      MOCLDY    69  64  84 S18       29.69F
MARTHAS VNYRD  MOCLDY    67  65  93 S14       29.67F
$$

MAZALL-260100-
CENTRAL AND WESTERN MASSACHUSETTS

CITY           SKY/WX    TMP DP  RH WIND       PRES   REMARKS
WORCESTER      MOCLDY    62  59  90 S9        29.63F
6HR MIN TEMP:  60; 6HR MAX TEMP:  64; 6HR PCP:  0.01;

FITCHBURG      MOCLDY    60  57  89 CALM      29.61F
ORANGE         MOCLDY    60  58  92 CALM      29.60F
SPRINGFIELD    MOCLDY    61  59  91 S7        29.57S
WESTFIELD      PTCLDY    60  58  92 S5        29.59S
NORTH ADAMS    LGT RAIN  60  56  86 E5        29.58S
PITTSFIELD     CLOUDY    61  54  77 S8        29.58F
$$

RIZALL-260100-
RHODE ISLAND

CITY           SKY/WX    TMP DP  RH WIND       PRES   REMARKS
PROVIDENCE     CLOUDY    67  62  84 S12       29.64S
6HR MIN TEMP:  67; 6HR MAX TEMP:  70; 6HR PCP:  0.01;

NEWPORT        CLOUDY    67  63  87 S13G20    29.65S
BLOCK ISLAND   CLOUDY    66  62  87 SW12      29.65F
SMITHFIELD     CLOUDY    65  62  90 VRB6      29.64S
WESTERLY       CLOUDY    68  63  84 SW9       29.64F
$$

CTZALL-260100-
CONNECTICUT

CITY           SKY/WX    TMP DP  RH WIND       PRES   REMARKS
BRADLEY INTL   MOCLDY    66  59  78 S9        29.60F
6HR MIN TEMP:  66; 6HR MAX TEMP:  70; 6HR PCP:  0.01;

HARTFORD       PTCLDY    66  60  81 S8        29.60S
BRIDGEPORT     PTCLDY    68  61  78 SW20      29.62S
DANBURY        CLEAR     65  57  75 S7        29.63S
GROTON         MOCLDY    69  62  78 SW7       29.62F
NEW HAVEN      PTCLDY    70  61  73 SW8       29.63S
CHESTER        FAIR      66  63  88 S7        29.63F
MERIDEN        PTCLDY    65  58  78 S6        29.61F
WILLIMANTIC    CLOUDY    66  61  84 S8        29.63S
OXFORD         CLEAR     63  58  83 S9        29.64S
$$

MEZ002-015-021-024-NHZ003-005-008-011-012-014-VTZ005-008-260100-
NORTHERN NEW ENGLAND

CITY           SKY/WX    TMP DP  RH WIND       PRES   REMARKS
PORTLAND ME    LGT RAIN  58  56  93 SE3       29.65F
6HR MIN TEMP:  57; 6HR MAX TEMP:  62; 6HR PCP:  0.02;

BANGOR ME      CLOUDY    57  52  83 S8        29.68S
CONCORD NH     CLOUDY    58  56  93 MISG      29.60F
MANCHESTER NH  CLOUDY    62  58  86 SE7       29.60F
NASHUA NH      CLOUDY    59  50  72 CALM      29.61F
PORTSMOUTH NH  CLOUDY    60  58  92 SE9       29.61F
JAFFREY NH     LGT RAIN  62  58  86 S6        29.61F
KEENE NH       LGT RAIN  57  57 100 CALM        N/A  FOG
BURLINGTON VT  LGT RAIN  56  54  93 SE3       29.54F
MT. WASHINGTON LGT RAIN  37  37 100 SW24G37     N/A  VSB 0   WCI  26
$$

NYZ052-076-260100-
EASTERN NEW YORK

CITY           SKY/WX    TMP DP  RH WIND       PRES   REMARKS
ALBANY         MOCLDY    63  58  83 S12       29.56R
6HR MIN TEMP:  62; 6HR MAX TEMP:  66; 6HR PCP: TRACE;

NEW YORK CITY  PTCLDY    67  57  70 S12G17    29.64R
6HR MIN TEMP:  67; 6HR MAX TEMP:  77; 6HR PCP: TRACE;

$$

ANZALL-260100-
MARINE OBSERVATIONS

STATION/POSITION TIME  TEMP    WIND        PRES    VSBY  WAVE
                       AIR SEA DIR/SP/G                  HT/PER
                 (UTC) (F)     (DEG/KT/KT) (MB)    (MI)  (FT/S)
BOSTON BUOY      2350      62  160/ 12/ 16 1003.7F         2/ 3
BUZZARDS BAY     2300   67     180/ 17/ 19 1004.8F
NANTUCKET SOUND  2350   68 67  180/ 19/ 23 1004.6F         3/ 3
MASS BAY-STELLWA 2204   62 61  150/ 10/ 12 1003.9F  1 7/8  1/ 2
ISLE OF SHOALS   2300   62     150/ 18/ 19 1003.0F
S OF BLOCK IS    2326      66                N/A           4/ 5
$$

......................KEY.........................
  SKY/WX - SKY CONDITION/PRESENT WEATHER
  TMP    - TEMPERATURE IN FAHRENHEIT
  DWPT   - DEWPOINT IN FAHRENHEIT
  RH     - RELATIVE HUMIDITY IN PERCENT
  WIND   - DIRECTION AND SPEED IN MPH
  PRES   - MEAN SEA LEVEL PRESSURE IN INCHES OF HG
  WCI    - WIND CHILL INDEX
  VSB    - VISIBILITY IN MILES
  HX     - HEAT INDEX
  TC     - TEMPERATURE IN CELSIUS
  VRB    - VARIABLE WIND DIRECTION
  N/A    - NOT AVAILABLE



USA.gov is the U.S. government's official web portal to all federal, state and local government web resources and services.